Tracking 25734 objects as of 27-May-2022
HD Live streaming from Space Station
objects crossing your sky now

STARLINK-1115

Track STARLINK-1115 now!
10-day predictions
STARLINK-1115 is classified as:


NORAD ID: 44973
Int'l Code: 2020-001BM
Perigee: 553.1 km
Apogee: 555.6 km
Inclination: 53.1 °
Period: 95.6 minutes
Semi major axis: 6925 km
RCS: Unknown
Launch date: January 7, 2020
Source: United States (US)
Launch site: AIR FORCE EASTERN TEST RANGE (AFETR)
aabbcc
Your satellite tracking list
Your tracking list is empty




NASA's NSSDC Master Catalog

Two Line Element Set (TLE):
1 44973U 20001BM  22146.08074443  .00001866  00000-0  14410-3 0  9999
2 44973  53.0548  37.8860 0001746  54.7977 305.3175 15.06402987131868
Source of the keplerian elements: AFSPC